Location: Hochstatterhof
(48.7256°N, 10.3487°E)
Time: 02:21:04
(UTC+00:00)

Cosmos 2360 Rocket - Pass Details

Date: 26 September 2023
Orbit: 833 x 845 km, 71.0° (Epoch: 04 December)

Event Time Altitude Azimuth Distance (km) Brightness Sun altitude
Rises 02:27:55 0° 333° (NNW) 3,412 5.4 -26.3°
Reaches altitude 10° 02:30:26 10° 338° (NNW) 2,475 4.7 -26.0°
Maximum altitude 02:36:02 57° 57° (ENE) 989 2.8 -25.2°
Drops below altitude 10° 02:41:36 10° 136° (SE) 2,463 4.8 -24.4°
Sets 02:44:05 0° 140° (SE) 3,394 5.5 -24.0°
